DW7423 Weather Reports


time (UTC)temp
F
wind
direction
speed
knots
gust
knots
rain 1hr
in
rain 24hr
in
rain mn
in
humidity
%
barometer
mb
20260506234522 64 38 3.5 10.4 0.00 0.00 0.00 66 1011.3
20260506233014 64 17 3.5 11.3 0.00 0.00 0.00 67 1011.0
20260506231507 64 319 1.7 7.8 0.00 0.00 0.00 67 1011.0
20260506230003 65 22 1.7 7.0 0.00 0.00 0.00 68 1011.1
20260506224559 65 18 2.6 8.7 0.00 0.00 0.00 68 1010.9
20260506223054 66 36 1.7 9.6 0.00 0.00 0.00 69 1010.8
20260506221555 67 30 1.7 9.6 0.00 0.00 0.00 69 1010.7
20260506220044 68 319 0.9 7.8 0.00 0.00 0.00 69 1010.8
20260506214540 70 259 1.7 5.2 0.00 0.00 0.00 68 1010.7
20260506213036 70 318 1.7 9.6 0.00 0.00 0.00 68 1010.3
20260506211531 71 61 3.5 10.4 0.00 0.00 0.00 68 1010.4
20260506210033 72 335 1.7 13.9 0.00 0.00 0.00 68 1010.2
20260506204524 74 312 1.7 9.6 0.00 0.00 0.00 67 1010.4
20260506203021 73 290 3.5 7.8 0.00 0.00 0.00 67 1010.5
20260506201524 73 297 2.6 9.6 0.00 0.00 0.00 67 1010.5
20260506200033 73 296 1.7 11.3 0.00 0.00 0.00 66 1010.2
20260506194513 75 321 1.7 7.0 0.00 0.00 0.00 67 1010.0
20260506193008 78 40 4.3 10.4 0.00 0.00 0.00 66 1009.8
20260506191504 78 332 3.5 7.0 0.00 0.00 0.00 65 1009.9
20260506190100 77 30 0.9 5.2 0.00 0.00 0.00 64 1010.2
20260506184607 76 38 1.7 6.1 0.00 0.00 0.00 62 1010.1
20260506183052 75 44 0.9 4.3 0.00 0.00 0.00 59 1010.3
20260506181547 73 46 0.9 4.3 0.00 0.00 0.00 51 1010.4
20260506180044 72 90 1.7 6.1 0.00 0.00 0.00 43 1010.3
20260506174541 71 39 1.7 4.3 0.00 0.00 0.00 25 1010.4
20260506173044 68 24 0.0 7.8 0.00 0.00 0.00 8 1010.5
20260506171547 67 74 0.0 5.2 0.00 0.00 0.00 5 1010.7
20260506170037 66 67 0.9 7.0 0.00 0.00 0.00 6 1010.8
20260506164539 66 39 1.7 7.0 0.00 0.00 0.00 9 1010.9
20260506163028 66 24 2.6 12.2 0.00 0.00 0.00 20 1011.6
20260506161526 69 5 5.2 13.9 0.00 0.00 0.00 31 1011.8
20260506160019 76 287 1.7 7.8 0.00 0.00 0.00 11 1011.0
20260506154516 77 113 0.0 0.0 0.00 0.00 0.00 10 1010.8
20260506153010 77 113 0.0 0.0 0.00 0.00 0.00 13 1010.4
20260506151507 77 115 0.0 0.0 0.00 0.00 0.00 15 1010.1
20260506150002 77 113 0.0 4.3 0.00 0.00 0.00 12 1009.8
20260506144556 76 178 0.0 4.3 0.00 0.00 0.00 11 1009.4
20260506143052 76 163 0.0 4.3 0.00 0.00 0.00 8 1009.0
20260506141605 76 183 0.0 1.7 0.00 0.00 0.00 6 1009.0
20260506140044 76 113 0.0 0.0 0.00 0.00 0.00 6 1009.3
20260506134540 76 162 0.0 0.0 0.00 0.00 0.00 4 1008.5
20260506133036 76 177 0.0 2.6 0.00 0.00 0.00 3 1008.5
20260506131536 75 180 0.9 5.2 0.00 0.00 0.00 3 1008.4
20260506130029 0 0.0 0.0 0.00 0.00 0.00 1008.2
20260506124528 0 0.0 0.0 0.00 0.00 0.00 1008.1
20260506123031 0 0.0 0.0 0.00 0.00 0.00 1008.1
20260506121520 0 0.0 0.0 0.00 0.00 0.00 1008.2
20260506120015 0 0.0 0.0 0.00 0.00 0.00 1008.1
20260506114511 0 0.0 0.0 0.00 0.00 0.00 1008.1
20260506113008 75 196 0.0 2.6 0.00 0.00 0.00 4 1008.1
20260506111502 75 207 0.0 0.0 0.00 0.00 0.00 4 1008.1
20260506110058 75 207 0.0 0.0 0.00 0.00 0.00 4 1008.0
20260506104553 75 207 0.0 0.9 0.00 0.00 0.00 3 1007.8
20260506103052 75 207 0.0 0.9 0.00 0.00 0.00 3 1007.6
20260506101548 75 218 0.0 3.5 0.00 0.00 0.00 3 1007.4
20260506100045 75 219 0.0 5.2 0.00 0.00 0.00 2 1007.3
20260506094548 75 179 0.0 6.1 0.00 0.00 0.00 2 1007.3
20260506093046 75 208 0.0 5.2 0.00 0.00 0.00 3 1007.0
20260506091536 75 223 0.9 6.1 0.00 0.00 0.00 4 1006.9
20260506090033 75 182 0.9 7.0 0.00 0.00 0.00 5 1006.9
20260506084533 75 200 0.0 3.5 0.00 0.00 0.00 7 1006.8
20260506083031 75 215 1.7 5.2 0.00 0.00 0.00 8 1006.8
20260506081529 76 182 1.7 7.0 0.00 0.00 0.00 10 1006.9
20260506073024 76 203 1.7 5.2 0.00 0.00 0.00 14 1007.2
20260506071525 76 202 0.9 6.1 0.00 0.00 0.00 15 1007.5
20260506061529 76 204 0.9 7.0 0.00 0.00 0.00 19 1007.6
20260506044517 77 173 1.7 6.1 0.00 0.00 0.00 24 1007.5
20260506043014 77 199 1.7 6.1 0.00 0.00 0.00 26 1007.5
20260506041508 77 173 1.7 6.1 0.00 0.00 0.00 28 1007.3
20260506040008 77 197 0.9 7.8 0.00 0.00 0.00 30 1007.1
20260506034507 78 182 0.9 8.7 0.00 0.00 0.00 33 1007.0
20260506033007 78 172 2.6 7.8 0.00 0.00 0.00 36 1006.7
20260506031513 78 180 1.7 7.0 0.00 0.00 0.00 37 1006.6
20260506030007 78 209 1.7 7.8 0.00 0.00 0.00 42 1006.4
20260506024505 79 169 2.6 13.0 0.00 0.00 0.00 47 1006.1
20260506023005 79 190 4.3 8.7 0.00 0.00 0.00 53 1005.9
20260506021503 80 163 2.6 8.7 0.00 0.00 0.00 58 1005.4
20260506020005 80 179 3.5 6.1 0.00 0.00 0.00 60 1005.2
20260506014503 81 192 3.5 7.0 0.00 0.00 0.00 62 1005.1
20260506013003 81 194 2.6 7.0 0.00 0.00 0.00 64 1005.0
20260506011503 82 204 0.9 4.3 0.00 0.00 0.00 64 1005.2
20260506004628 82 177 0.9 3.5 0.00 0.00 0.00 65 1005.1
20260506003059 82 173 0.9 6.1 0.00 0.00 0.00 66 1004.9
20260506001601 83 222 1.7 6.1 0.00 0.00 0.00 66 1004.9
20260506000058 83 171 0.9 4.3 0.00 0.00 0.00 66 1004.7